Wind_Speed
14 15 13 15 20 22 21 18 19 13 9 8 7 6 0 8 11 13 15 20 25 25 28 28 29 28 29 31 32 27 24 23 24 22 22 20 19 17 15 15 13 13 11
15 18 16 17 16 14 14 11 9 8 7 4 5 6 11 14 15 23 22 21 27 31 30 31 29 31 34 38 37 32 30 26 21 19 19 19 18 17 15 16 15 14 11
20 20 20 18 13 12 14 12 8 7 6 6 10 13 14 13 18 22 25 26 28 32 30 27 26 32 28 29 31 31 32 31 30 30 26 20 19 18 18 17 15 13 11
20 22 19 18 18 15 14 10 9 8 7 10 13 17 19 15 16 15 22 25 30 36 38 34 34 29 31 37 30 27 28 28 25 27 30 30 21 21 19 17 16 15 13
16 18 17 17 19 14 13 11 14 14 12 18 18 21 17 14 14 12 19 22 23 26 33 36 30 30 36 38 37 28 25 25 25 23 28 29 30 27 27 26 19 16 15
18 22 22 20 15 13 19 25 20 20 19 19 22 19 14 14 17 16 20 22 24 25 32 36 36 33 33 37 34 37 32 29 30 32 26 24 23 21 27 30 24 18 17
27 25 24 23 25 22 27 25 23 15 20 23 21 18 15 17 21 20 21 23 22 26 29 31 30 31 31 33 34 35 34 36 34 33 32 32 34 26 27 32 27 19 23
27 27 25 28 26 30 27 20 17 16 23 21 19 16 14 17 18 23 18 24 25 24 22 27 28 29 26 25 36 38 39 38 41 34 32 30 31 31 34 29 26 29 27
27 26 26 28 27 27 25 19 13 18 22 20 17 19 18 21 21 20 20 23 22 22 19 25 30 31 24 24 29 32 33 34 34 36 32 34 36 34 32 32 29 24 28
26 29 24 25 27 23 21 15 15 21 22 20 18 17 15 19 19 18 22 20 15 20 15 16 24 26 19 17 23 27 29 30 32 33 35 35 37 37 37 38 31 27 20
27 29 27 23 21 18 16 14 13 20 22 21 21 17 15 17 17 20 28 23 8 22 17 15 18 18 21 21 22 22 28 28 31 34 33 33 39 38 43 42 40 30 24
27 26 25 23 20 15 12 11 13 21 24 21 18 15 17 15 16 17 15 10 11 11 17 15 16 22 26 27 25 24 24 28 28 31 29 30 31 31 35 42 46 42 29
25 23 25 20 14 12 11 13 13 21 24 18 13 11 14 13 14 13 11 9 10 16 13 13 16 20 24 28 23 24 28 29 30 28 29 34 36 36 31 36 38 47 43
22 23 22 14 12 14 12 12 16 19 22 17 14 8 9 9 11 9 9 10 10 7 12 12 12 9 18 24 24 23 24 26 26 27 30 32 32 35 31 30 32 36 45
20 21 19 16 12 11 8 14 17 19 21 18 13 9 5 5 8 8 9 9 11 11 11 14 14 11 11 19 24 23 23 25 26 27 26 29 32 34 33 29 28 32 34
18 18 16 17 14 14 12 15 21 20 20 20 14 11 7 8 10 6 7 5 8 6 7 9 9 9 13 20 19 24 22 21 23 23 27 28 30 31 29 31 34 28 31
14 15 15 15 13 12 11 12 21 23 20 19 13 7 7 10 8 6 7 4 2 4 3 5 8 13 18 12 15 18 19 22 20 19 23 28 29 29 28 29 32 32 27
15 13 11 10 9 8 9 7 14 19 23 20 14 7 6 11 9 6 7 3 2 2 1 2 3 2 7 9 15 16 20 23 21 21 21 23 27 28 26 26 28 29 30
19 16 13 11 9 10 8 8 12 14 18 23 18 13 9 7 8 9 10 7 4 3 2 4 2 3 10 15 15 13 17 22 24 21 21 21 22 26 24 23 24 24 27
17 17 15 14 13 12 11 11 17 17 16 20 20 17 14 10 8 11 10 12 9 5 5 5 6 5 9 13 14 17 17 21 21 21 22 21 20 22 23 23 22 21 23
11 14 17 19 18 15 13 13 15 20 17 15 17 17 17 14 14 13 11 10 11 9 12 12 10 11 10 14 15 16 19 18 21 20 21 21 22 19 20 23 22 19 17
7 8 11 12 15 14 17 19 18 16 17 19 20 20 13 9 8 14 16 15 15 14 14 19 17 15 16 16 14 14 16 16 21 21 21 20 22 23 21 20 18 23 15
3 8 10 10 11 14 16 23 23 21 19 20 19 17 18 14 12 11 13 16 17 16 15 16 20 20 19 18 19 20 20 19 20 22 22 22 22 23 21 17 20 22 19
11 12 5 10 13 14 16 20 28 27 24 22 21 21 18 16 16 17 17 18 21 23 21 20 17 20 21 21 20 22 24 22 23 25 25 24 22 24 24 24 20 23 22
5 11 2 5 12 17 20 20 22 27 33 30 28 27 26 24 22 20 21 24 27 23 23 23 25 23 24 24 23 23 23 24 27 27 25 24 25 26 26 26 24 26 27
11 12 6 8 9 13 15 19 20 25 26 28 31 34 33 32 31 28 27 26 26 26 26 28 29 30 29 26 25 22 23 22 25 27 27 26 26 29 28 26 26 29 28
Wind_Direction
251 222 217 221 227 233 244 249 250 246 240 234 236 243 21 81 66 48 52 61 50 61 62 71 75 68 65 63 60 65 63 64 67 69 62 59 58 58 54 36 33 44 63
239 221 210 217 222 223 223 213 197 203 205 186 154 162 126 102 70 60 61 66 70 69 66 75 72 67 68 65 63 59 65 68 64 62 62 57 52 51 46 33 47 43 55
223 219 214 219 221 214 209 201 194 187 170 141 126 136 113 106 86 75 75 76 69 68 61 67 58 52 55 50 55 65 65 64 65 62 60 60 57 48 50 51 44 43 38
207 204 205 212 206 208 199 200 197 182 148 121 134 126 119 100 94 75 80 79 74 78 71 69 63 62 55 50 55 58 64 55 62 63 61 56 61 57 50 49 46 43 41
183 188 184 180 184 188 198 191 146 142 144 133 122 125 111 93 96 87 98 82 86 83 69 63 64 66 58 54 54 63 60 62 62 61 60 66 54 48 51 45 42 43 50
149 150 148 154 165 167 134 130 127 123 125 124 121 112 101 94 94 99 104 84 87 80 66 64 58 59 61 60 56 58 58 54 57 53 47 56 55 64 57 49 39 60 53
134 136 136 143 145 142 133 120 132 129 129 127 110 104 96 95 97 105 113 93 90 83 69 56 53 50 56 64 64 60 53 51 53 56 55 53 42 48 51 44 54 63 51
133 133 136 145 147 138 122 103 101 126 138 131 113 103 101 104 105 107 107 103 81 77 63 47 42 45 49 59 70 61 55 50 48 44 55 56 44 41 39 38 58 47 40
135 137 141 142 150 142 132 103 108 130 136 130 108 107 100 101 102 108 97 101 90 76 48 44 45 47 40 70 65 57 52 46 48 50 47 51 46 42 37 41 34 42 34
140 142 139 149 145 133 131 115 111 134 134 119 111 116 105 103 102 97 110 98 88 86 85 14 19 21 39 68 55 46 51 58 49 45 48 44 52 47 45 40 37 34 28
139 148 149 145 154 146 140 122 120 136 136 123 113 102 121 115 103 110 110 94 81 39 59 32 14 47 64 56 51 53 56 60 58 51 48 48 38 40 43 40 36 36 39
137 148 149 145 146 142 155 151 134 144 145 136 115 99 90 124 113 111 137 116 89 54 39 40 41 73 60 50 53 61 47 45 43 42 42 44 33 26 35 35 37 34 35
143 150 160 164 165 168 166 166 155 153 155 145 136 117 84 97 121 105 104 87 99 83 64 61 73 66 50 45 47 47 41 39 35 34 43 40 37 30 35 36 34 35 33
143 149 160 159 168 170 160 164 164 157 165 155 145 134 94 83 131 106 102 94 76 74 55 47 54 62 49 39 39 39 34 32 39 33 36 36 31 30 31 29 34 32 30
146 152 155 162 163 179 190 175 170 162 166 161 151 148 148 126 145 105 113 98 80 69 57 56 58 83 49 27 25 28 35 36 41 40 39 32 32 32 34 31 28 30 25
166 167 160 157 147 142 118 153 169 168 172 174 156 139 99 143 151 145 138 111 87 66 64 40 48 54 41 22 19 21 26 28 30 35 34 29 31 34 33 34 36 30 35
177 177 183 167 164 150 148 131 161 176 181 171 164 150 109 148 163 162 161 155 81 45 67 31 29 46 10 11 33 17 27 29 22 19 15 17 20 26 31 33 36 34 33
194 194 191 201 205 192 178 187 165 177 185 178 177 182 155 172 194 199 188 190 198 9 220 297 26 334 324 8 19 25 19 14 15 12 8 11 14 15 25 32 33 33 33
196 197 195 201 211 203 206 193 188 189 194 200 196 204 195 177 190 212 203 187 195 209 258 311 205 269 331 352 359 6 4 357 359 5 5 13 14 12 13 22 26 29 30
198 198 207 214 215 213 211 194 190 202 198 208 214 207 203 202 212 212 224 215 216 234 243 257 234 267 308 315 327 331 334 341 347 352 359 359 3 5 10 8 13 18 27
219 216 218 225 228 225 215 208 198 198 203 214 215 212 209 222 224 224 228 241 240 246 259 255 259 263 297 314 321 322 335 330 338 343 345 351 356 354 1 4 359 6 16
241 246 231 226 225 227 222 218 217 214 219 219 224 229 226 214 223 237 237 241 259 264 268 256 262 275 288 300 303 317 330 328 336 345 348 346 345 349 356 7 15 9 6
211 233 240 246 242 245 242 229 225 217 224 223 226 227 231 242 244 241 236 241 256 259 273 278 260 266 279 287 296 301 310 320 321 326 331 331 335 334 339 343 351 356 357
68 31 312 248 242 251 257 252 241 239 241 241 241 240 246 254 258 255 258 260 269 270 266 264 264 262 264 274 291 293 299 304 310 316 314 323 321 326 325 329 332 341 346
73 343 306 267 247 239 242 248 256 258 255 255 254 251 251 252 258 263 262 266 266 270 267 264 263 265 264 267 276 287 294 300 304 308 312 311 314 314 316 323 324 326 325
311 308 303 305 284 256 251 251 244 243 250 255 258 259 262 265 266 267 273 275 267 272 275 265 262 267 269 272 281 284 291 297 297 302 307 309 310 309 312 314 318 315 315
Height
10965 10966 10968 10971 10974 10977 10980 10982 10986 10987 10987 10989 10992 10993 10993 10994 10993 10990 10986 10984 10980 10976 10971 10970 10971 10968 10965 10962 10958 10955 10953 10950 10948 10947 10946 10946 10945 10944 10943 10942 10939 10936 10936
10962 10963 10967 10971 10974 10977 10980 10981 10985 10986 10987 10989 10990 10993 10995 10995 10993 10990 10988 10986 10984 10979 10977 10977 10975 10972 10969 10966 10961 10959 10955 10952 10951 10950 10949 10948 10946 10945 10944 10942 10941 10939 10937
10958 10961 10966 10970 10974 10977 10979 10983 10984 10986 10988 10989 10991 10993 10995 10995 10994 10993 10991 10989 10987 10984 10983 10981 10978 10976 10973 10969 10966 10963 10960 10958 10957 10956 10953 10950 10949 10947 10945 10942 10941 10941 10940
10955 10960 10965 10970 10973 10977 10981 10983 10985 10987 10989 10991 10992 10994 10996 10995 10996 10996 10996 10994 10991 10989 10987 10984 10982 10980 10977 10974 10970 10967 10965 10964 10962 10960 10957 10954 10951 10949 10946 10944 10943 10942 10941
10954 10959 10964 10969 10974 10978 10981 10984 10986 10988 10990 10993 10993 10995 10997 10996 10997 10997 10998 10997 10995 10994 10991 10988 10986 10984 10983 10980 10976 10972 10971 10969 10967 10965 10961 10957 10955 10953 10950 10948 10945 10944 10943
10956 10960 10965 10971 10974 10980 10983 10985 10988 10991 10993 10994 10995 10997 10998 10999 10999 10999 11000 11000 10999 10997 10995 10993 10990 10989 10986 10985 10982 10979 10977 10974 10972 10969 10965 10962 10958 10956 10954 10951 10948 10946 10945
10959 10962 10968 10973 10978 10982 10987 10988 10991 10993 10994 10996 10997 10999 11001 11001 11001 11001 11002 11004 11003 11000 10998 10996 10994 10993 10992 10990 10987 10984 10982 10980 10976 10974 10970 10967 10964 10961 10958 10955 10951 10950 10948
10963 10967 10971 10976 10980 10985 10988 10991 10992 10994 10996 10998 10999 11000 11001 11003 11005 11006 11007 11006 11005 11003 11001 10999 10997 10996 10996 10994 10991 10989 10987 10984 10980 10978 10974 10970 10968 10966 10962 10959 10955 10953 10951
10966 10970 10975 10980 10984 10988 10990 10993 10995 10996 10999 11001 11002 11003 11005 11007 11008 11010 11010 11010 11008 11007 11004 11003 11000 11000 11000 10998 10995 10992 10990 10988 10985 10982 10979 10975 10973 10969 10965 10963 10960 10956 10953
10969 10974 10978 10982 10986 10990 10993 10995 10996 10998 11001 11004 11005 11007 11010 11009 11011 11012 11012 11012 11011 11011 11009 11005 11004 11004 11004 11001 10998 10996 10995 10992 10988 10985 10983 10980 10977 10972 10970 10965 10961 10958 10955
10972 10977 10981 10984 10988 10992 10995 10997 10998 11000 11004 11007 11008 11010 11011 11013 11013 11015 11015 11014 11012 11012 11013 11011 11009 11008 11007 11005 11002 11000 10999 10995 10991 10989 10986 10984 10980 10977 10973 10969 10966 10960 10957
10976 10981 10985 10987 10991 10994 10996 10999 11001 11003 11006 11009 11012 11013 11014 11014 11015 11017 11017 11016 11016 11016 11015 11013 11013 11012 11010 11008 11006 11005 11003 11000 10996 10992 10990 10986 10984 10981 10977 10974 10970 10965 10960
10979 10983 10986 10989 10992 10995 10997 10999 11003 11005 11007 11010 11012 11014 11016 11016 11017 11019 11019 11018 11019 11019 11017 11016 11016 11015 11014 11012 11010 11008 11006 11004 11001 10997 10994 10990 10987 10984 10982 10978 10974 10969 10964
10982 10984 10988 10990 10993 10995 10997 11000 11003 11005 11007 11010 11012 11015 11016 11017 11019 11021 11021 11020 11020 11021 11020 11019 11019 11018 11016 11015 11013 11011 11008 11006 11004 11000 10997 10994 10991 10989 10985 10981 10977 10974 10971
10985 10987 10989 10991 10994 10996 10997 10999 11003 11005 11007 11010 11013 11014 11016 11017 11020 11022 11023 11023 11022 11022 11021 11021 11021 11020 11019 11018 11016 11014 11011 11009 11008 11005 11003 11000 10996 10992 10989 10985 10980 10978 10974
10986 10989 10990 10992 10994 10997 10997 10998 11001 11005 11007 11010 11013 11015 11016 11017 11020 11022 11024 11024 11023 11022 11022 11022 11022 11022 11022 11020 11017 11016 11014 11012 11011 11009 11007 11004 11001 10996 10993 10989 10985 10982 10979
10987 10990 10992 10994 10996 10998 10999 11000 11000 11004 11008 11011 11013 11016 11017 11018 11020 11022 11023 11025 11025 11024 11023 11023 11023 11023 11022 11021 11019 11018 11017 11016 11014 11012 11010 11007 11004 11000 10996 10993 10989 10985 10983
10987 10990 10992 10994 10996 10998 11000 11001 11002 11004 11008 11011 11012 11015 11017 11018 11020 11022 11023 11024 11025 11024 11024 11025 11025 11024 11022 11022 11021 11019 11018 11016 11015 11014 11011 11009 11006 11004 11000 10997 10993 10991 10988
10985 10988 10991 10993 10994 10997 10999 11001 11003 11005 11007 11010 11011 11013 11015 11017 11020 11021 11022 11024 11024 11025 11024 11025 11025 11025 11024 11022 11020 11019 11018 11017 11016 11013 11011 11009 11008 11005 11002 10999 10997 10994 10990
10984 10986 10988 10991 10994 10995 10997 11000 11002 11005 11007 11008 11010 11012 11014 11016 11018 11020 11021 11022 11023 11023 11024 11025 11026 11025 11024 11023 11021 11020 11018 11017 11016 11014 11011 11010 11008 11007 11005 11003 11000 10997 10993
10987 10988 10990 10991 10992 10994 10995 10997 11000 11003 11006 11007 11008 11011 11012 11014 11016 11018 11019 11021 11022 11023 11023 11024 11025 11024 11024 11023 11022 11020 11019 11018 11016 11015 11013 11011 11009 11008 11006 11004 11001 10998 10996
10990 10990 10990 10992 10993 10993 10993 10995 10997 11000 11003 11006 11007 11009 11010 11012 11013 11016 11017 11019 11020 11021 11021 11021 11021 11021 11020 11020 11020 11019 11018 11017 11015 11015 11013 11012 11010 11008 11007 11005 11003 11000 10997
10984 10986 10988 10989 10990 10992 10993 10994 10995 10998 11000 11002 11004 11006 11007 11008 11010 11013 11015 11016 11017 11018 11018 11018 11017 11017 11017 11017 11017 11017 11017 11016 11015 11014 11013 11011 11010 11008 11006 11005 11003 11001 10998
10983 10984 10984 10983 10984 10986 10990 10993 10995 10996 10996 10998 11000 11001 11004 11006 11008 11010 11012 11013 11014 11014 11014 11014 11015 11014 11014 11015 11015 11015 11015 11014 11013 11012 11011 11010 11008 11006 11004 11003 11000 10998 10997
10983 10982 10980 10979 10979 10981 10984 10987 10991 10995 10997 10998 10999 11000 11001 11004 11006 11007 11008 11008 11009 11008 11008 11009 11009 11010 11011 11011 11011 11010 11011 11010 11009 11008 11007 11006 11004 11001 11001 10999 10997 10995 10993
10981 10981 10981 10981 10980 10980 10982 10984 10984 10985 10989 10992 10994 10997 10999 11001 11002 11003 11003 11003 11003 11003 11004 11004 11004 11004 11006 11007 11007 11007 11006 11005 11005 11004 11002 11001 11001 10997 10995 10995 10993 10992 10991